map of DNK home
Great Circle Mapper logo
DNK - Airport
Location
City:  Dnepropetrovsk, Ukraine
Name:Dnepropetrovsk International Airport
ICAO / IATA:UKDD / DNK

Details
Type:Airport (Aerodrome, Airfield)
Use:International (customs port of entry)
Latitude:4821'26"N (48.357222)
Longitude:3506'02"E (35.100556)
Datum:WGS 1984
Elevation:481 ft (147 m)
Variation:7.53E (WMM2015 magnetic declination)
0.11 annual change
Runways:1
Longest:9320 × 144 ft (2841 × 44 m), paved

Time
Time Zone:UTC+2 (DST+3)
Local Time:

Weather
METAR:UKDD 261400Z 12002MPS 9999 OVC007 00/M01 Q1020 08210356 NOSIG
TAF:UKDD 260510Z 2606/2706 10006MPS 3100 BR BKN003 BKN015
TEMPO 2606/2618 13008MPS 1100 RASN BR OVC001 BKN012
TEMPO 2618/2706 16006MPS 0200 FZFG OVC001 TX00/2612Z TNM01/2704Z

Related Locations
Nearby:
Farthest:CHT: 10902 mi / 17545 km
Waitangi [Tuuta], Chatham Islands, NZ

Find:

   beyond  
but within

Other Information
Maps:
NOTAMs:
Links:
Sources:

  
flag of Ukraine   

Sectional Chart

Flight Planning
at skyvector.com

Satellite Image

Google Maps Satellite View

 

Copyright © 2004-2015 Karl L. Swartz. All rights reserved.
The Great Circle Mapper name and logo are trademarks of the Great Circle Mapper.
All other trademarks mentioned herein belong to their respective owners.
Please see credits for attibutions and further copyright information.

  Follow gcmap on Facebook Follow gcmap on Twitter

hCard Microformat

Geo Microformat